Terminal Aerodrome Forecast
Issued by NWS

Home | Current Version | Previous Version | Text Only | Print | Product List | Glossary On
Versions: 1 2 3 4 5 6 7 8 9 10 11 12 13 14 15 16 17 18 19 20 21 22 23 24 25 26 27 28 29 30 31 32 33 34 35
000
FTUS43 KDLH 301700
TAFHYR
TAF
KHYR 301720Z 3018/3118 04007KT P6SM OVC015
     FM302300 04004KT P6SM OVC035
     FM310400 00000KT 4SM BR FEW002 OVC015
     FM310600 00000KT 1 1/2SM BR SCT002 OVC007
     FM310900 00000KT 1/2SM FG OVC002
     FM311300 13004KT 2SM BR OVC007
     FM311500 15008KT P6SM OVC015=

USA.gov is the U.S. government's official web portal to all federal, state and local government web resources and services.